When you browse on this site, cookies collect data to enhance your experience and personalize the content and advertising you see.
Visit our Privacy Policy to learn more. By continuing to use the site, you agree to this use of cookies and data.
  • In Netherlands
  • List of Countries
  • For 7 days
  • Water Temperature
  • Satellite Maps
  • Weather Map
  • Weather Widgets
  • user-avatar
    Login

    Hourly Weather Varna

    Today, 18 July, Thursday

    Time Temperature Precipitation Wind Pressure Humidity
    00:00 +19°C° 0 mm 1 mps 742 mmHg 69%
    01:00 +18°C° 0 mm 2 mps 742 mmHg 69%
    02:00 +18°C° 0 mm 2 mps 741 mmHg 70%
    03:00 +18°C° 0 mm 2 mps 742 mmHg 69%
    04:00 +18°C° 0 mm 3 mps 742 mmHg 67%
    05:00 +18°C° 0 mm 3 mps 742 mmHg 65%
    06:00 +20°C° 0 mm 3 mps 742 mmHg 61%
    07:00 +21°C° 0 mm 3 mps 743 mmHg 57%
    08:00 +24°C° 0 mm 3 mps 743 mmHg 54%
    09:00 +26°C° 0 mm 2 mps 743 mmHg 49%
    10:00 +27°C° 0 mm 2 mps 744 mmHg 44%
    11:00 +29°C° 0 mm 1 mps 744 mmHg 39%
    12:00 +28°C° 0 mm 2 mps 744 mmHg 42%
    13:00 +27°C° 0 mm 2 mps 744 mmHg 45%
    14:00 +27°C° 0 mm 3 mps 744 mmHg 48%
    15:00 +27°C° 0 mm 3 mps 744 mmHg 49%
    16:00 +26°C° 0 mm 3 mps 744 mmHg 51%
    17:00 +26°C° 0 mm 3 mps 744 mmHg 52%
    18:00 +25°C° 0 mm 2 mps 744 mmHg 59%
    19:00 +23°C° 0 mm 2 mps 744 mmHg 66%
    20:00 +22°C° 0 mm 1 mps 744 mmHg 73%
    21:00 +21°C° 0 mm 1 mps 745 mmHg 76%
    22:00 +18°C° 0 mm 0 mps 745 mmHg 79%
    23:00 +18°C° 0 mm 0 mps 745 mmHg 81%

    Tomorrow, 19 July, Friday

    Time Temperature Precipitation Wind Pressure Humidity
    00:00 +18°C° 0 mm 0 mps 746 mmHg 81%
    01:00 +17°C° 0 mm 0 mps 746 mmHg 80%
    02:00 +19°C° 0 mm 1 mps 746 mmHg 79%
    03:00 +19°C° 0 mm 1 mps 746 mmHg 78%
    04:00 +19°C° 0 mm 1 mps 746 mmHg 77%
    05:00 +19°C° 0 mm 1 mps 746 mmHg 77%
    06:00 +21°C° 0 mm 1 mps 746 mmHg 69%
    07:00 +23°C° 0 mm 1 mps 747 mmHg 62%
    08:00 +25°C° 0 mm 1 mps 747 mmHg 54%
    09:00 +26°C° 0 mm 2 mps 747 mmHg 50%
    10:00 +27°C° 0 mm 2 mps 747 mmHg 45%
    11:00 +29°C° 0 mm 3 mps 747 mmHg 41%
    12:00 +29°C° 0 mm 3 mps 747 mmHg 41%
    13:00 +29°C° 0 mm 4 mps 747 mmHg 40%
    14:00 +29°C° 0 mm 4 mps 747 mmHg 40%
    15:00 +29°C° 0 mm 4 mps 747 mmHg 42%
    16:00 +28°C° 0 mm 4 mps 747 mmHg 43%
    17:00 +27°C° 0 mm 4 mps 747 mmHg 45%
    18:00 +25°C° 0 mm 3 mps 747 mmHg 55%
    19:00 +22°C° 0 mm 3 mps 747 mmHg 65%
    20:00 +20°C° 0 mm 3 mps 747 mmHg 76%
    21:00 +20°C° 0 mm 2 mps 748 mmHg 79%
    22:00 +20°C° 0 mm 2 mps 748 mmHg 82%
    23:00 +19°C° 0 mm 2 mps 748 mmHg 85%

    Day after tomorrow, 20 July, Saturday

    Time Temperature Precipitation Wind Pressure Humidity
    00:00 +20°C° 0 mm 1 mps 748 mmHg 85%
    01:00 +19°C° 0 mm 1 mps 748 mmHg 85%
    02:00 +17°C° 0 mm 0 mps 748 mmHg 85%
    03:00 +17°C° 0 mm 0 mps 748 mmHg 84%
    04:00 +19°C° 0 mm 1 mps 748 mmHg 83%
    05:00 +19°C° 0 mm 1 mps 748 mmHg 82%
    06:00 +21°C° 0 mm 1 mps 748 mmHg 73%
    07:00 +23°C° 0 mm 2 mps 748 mmHg 63%
    08:00 +25°C° 0 mm 2 mps 749 mmHg 53%
    09:00 +27°C° 0 mm 2 mps 749 mmHg 47%
    10:00 +28°C° 0 mm 3 mps 749 mmHg 42%
    11:00 +29°C° 0 mm 3 mps 749 mmHg 36%
    12:00 +29°C° 0 mm 4 mps 749 mmHg 36%
    13:00 +30°C° 0 mm 4 mps 749 mmHg 37%
    14:00 +30°C° 0 mm 4 mps 749 mmHg 37%
    15:00 +29°C° 0 mm 4 mps 749 mmHg 38%
    16:00 +29°C° 0 mm 4 mps 749 mmHg 40%
    17:00 +28°C° 0 mm 3 mps 749 mmHg 41%
    18:00 +26°C° 0 mm 3 mps 749 mmHg 51%
    19:00 +24°C° 0 mm 2 mps 749 mmHg 61%
    20:00 +21°C° 0 mm 2 mps 749 mmHg 71%
    21:00 +21°C° 0 mm 1 mps 749 mmHg 74%
    22:00 +20°C° 0 mm 1 mps 749 mmHg 76%
    23:00 +18°C° 0 mm 0 mps 749 mmHg 79%

    21 July, Sunday

    Time Temperature Precipitation Wind Pressure Humidity
    00:00 +18°C° 0 mm 0 mps 749 mmHg 77%
    01:00 +20°C° 0 mm 1 mps 749 mmHg 76%
    02:00 +19°C° 0 mm 1 mps 749 mmHg 74%
    03:00 +19°C° 0 mm 1 mps 749 mmHg 72%
    04:00 +19°C° 0 mm 1 mps 749 mmHg 70%
    05:00 +19°C° 0 mm 1 mps 749 mmHg 68%
    06:00 +22°C° 0 mm 1 mps 749 mmHg 59%
    07:00 +24°C° 0 mm 1 mps 749 mmHg 51%
    08:00 +27°C° 0 mm 1 mps 750 mmHg 42%
    09:00 +28°C° 0 mm 1 mps 750 mmHg 38%
    10:00 +29°C° 0 mm 2 mps 750 mmHg 35%
    11:00 +31°C° 0 mm 2 mps 750 mmHg 31%
    12:00 +31°C° 0 mm 3 mps 750 mmHg 31%
    13:00 +31°C° 0 mm 3 mps 750 mmHg 32%
    14:00 +33°C° 0 mm 3 mps 749 mmHg 32%
    15:00 +31°C° 0 mm 3 mps 749 mmHg 34%
    16:00 +30°C° 0 mm 3 mps 749 mmHg 36%
    17:00 +29°C° 0 mm 3 mps 749 mmHg 39%
    18:00 +27°C° 0 mm 3 mps 749 mmHg 48%
    19:00 +25°C° 0 mm 2 mps 749 mmHg 57%
    20:00 +23°C° 0 mm 1 mps 749 mmHg 67%
    21:00 +22°C° 0 mm 1 mps 749 mmHg 67%
    22:00 +22°C° 0 mm 1 mps 749 mmHg 66%
    23:00 +22°C° 0 mm 1 mps 749 mmHg 66%

    22 July, Monday

    Time Temperature Precipitation Wind Pressure Humidity
    00:00 +22°C° 0 mm 1 mps 749 mmHg 64%
    01:00 +22°C° 0 mm 1 mps 749 mmHg 62%
    02:00 +21°C° 0 mm 2 mps 749 mmHg 59%
    03:00 +22°C° 0 mm 1 mps 748 mmHg 58%
    04:00 +22°C° 0 mm 1 mps 748 mmHg 56%
    05:00 +22°C° 0 mm 1 mps 748 mmHg 55%
    06:00 +24°C° 0 mm 1 mps 748 mmHg 50%
    07:00 +27°C° 0 mm 1 mps 748 mmHg 44%
    08:00 +29°C° 0 mm 1 mps 749 mmHg 39%
    09:00 +30°C° 0 mm 1 mps 749 mmHg 36%
    10:00 +32°C° 0 mm 1 mps 749 mmHg 33%
    11:00 +34°C° 0 mm 2 mps 749 mmHg 30%
    12:00 +34°C° 0 mm 2 mps 748 mmHg 31%
    13:00 +34°C° 0 mm 3 mps 748 mmHg 32%
    14:00 +34°C° 0 mm 4 mps 748 mmHg 33%
    15:00 +33°C° 0 mm 4 mps 747 mmHg 35%
    16:00 +32°C° 0 mm 4 mps 747 mmHg 38%
    17:00 +30°C° 0 mm 4 mps 747 mmHg 41%
    18:00 +29°C° 0 mm 3 mps 747 mmHg 44%
    19:00 +28°C° 0 mm 3 mps 747 mmHg 47%
    20:00 +27°C° 0 mm 2 mps 747 mmHg 49%
    21:00 +26°C° 0 mm 2 mps 747 mmHg 51%
    22:00 +25°C° 0 mm 2 mps 747 mmHg 52%
    23:00 +24°C° 0 mm 2 mps 746 mmHg 54%

    23 July, Tuesday

    Time Temperature Precipitation Wind Pressure Humidity
    00:00 +24°C° 0 mm 2 mps 746 mmHg 55%
    01:00 +23°C° 0 mm 2 mps 746 mmHg 57%
    02:00 +23°C° 0 mm 2 mps 746 mmHg 58%
    03:00 +23°C° 0 mm 2 mps 746 mmHg 63%
    04:00 +21°C° 0 mm 2 mps 746 mmHg 68%
    05:00 +21°C° 0 mm 3 mps 746 mmHg 73%
    06:00 +24°C° 0 mm 3 mps 746 mmHg 70%
    07:00 +25°C° 0 mm 4 mps 746 mmHg 66%
    08:00 +27°C° 0 mm 4 mps 746 mmHg 63%
    09:00 +28°C° 0 mm 4 mps 746 mmHg 58%
    10:00 +30°C° 0 mm 5 mps 746 mmHg 53%
    11:00 +32°C° 0 mm 5 mps 746 mmHg 49%
    12:00 +32°C° 0.3 mm 5 mps 746 mmHg 50%
    13:00 +30°C° 0.3 mm 5 mps 746 mmHg 52%
    14:00 +30°C° 0.3 mm 5 mps 746 mmHg 54%
    15:00 +29°C° 0.1 mm 4 mps 745 mmHg 56%
    16:00 +28°C° 0.1 mm 4 mps 745 mmHg 58%
    17:00 +28°C° 0.1 mm 3 mps 745 mmHg 61%
    18:00 +26°C° 0 mm 2 mps 745 mmHg 68%
    19:00 +25°C° 0 mm 1 mps 745 mmHg 74%
    20:00 +23°C° 0 mm 1 mps 745 mmHg 81%
    21:00 +23°C° 0 mm 1 mps 745 mmHg 81%
    22:00 +22°C° 0 mm 1 mps 745 mmHg 81%
    23:00 +21°C° 0 mm 2 mps 745 mmHg 80%
    Show more